Zurück zum Katalog

STARLINK-38158

AktivKommunikationSSO
NORAD 100105·PAYLOAD·🇺🇸 United States

Gestartet Jul 21, 2026 von Vandenberg Space Force Base

Loading…

Nächste Überflüge (nächste 24 Stunden)

TLE

AktuellSource: Space-Track

Epoche: Sep 14, 2026, 12:28 UTC

1 A0105U 26166E   26257.51961354  .00214200  00000-0  13964-2 0  9997
2 A0105  97.2838 275.5992 0001077  70.8240 289.3142 15.75270534  8668

Verfolge STARLINK-38158 in Echtzeit mit AllMySat

Download on the App Store